{"data":{"norad_id":56076,"intl_designator":"2023-043AG","name":"ONEWEB-0635","alt_names":[],"object_type":"PAYLOAD","status":"ACTIVE","operator":null,"country":"UK","launch_date":"2023-03-26","launch_site_code":"SRILR","launch_vehicle":null,"mission":null,"orbit_class":"UNKNOWN","rcs_meters":null,"size_class":null,"mass_kg":null,"dimensions":null,"purposes":["comms"],"wikipedia_slug":null,"has_3d_model":false,"image_url":null,"decayed_at":null,"tle_current":{"epoch":"2026-09-20T05:10:45.448320Z","epoch_age_seconds":42792,"freshness":"FRESH","line1":"1 56076U 23043AG  26263.21580380 -.00000024  00000+0 -98266-4 0  9994","line2":"2 56076  87.8993 240.2500 0002250  85.8136 274.3251 13.15547119168920","mean_motion":13.15547119,"eccentricity":0.000225,"inclination_deg":87.8993,"raan_deg":240.25,"arg_perigee_deg":85.8136,"mean_anomaly_deg":274.3251,"bstar":-9.8266e-5,"rev_number":16892,"period_min":109.46016141897,"perigee_km":1200.0707837249,"apogee_km":1203.4817446938,"semimajor_km":7579.9132642093,"source":"CELESTRAK","updated_at":"2026-09-20T09:00:44.792843Z"}}}